Weather History for KESF - December, 2013

Change the Weather History Date:

Saturday, December 21, 2013

  Actual Average Record
Temperature  
Mean Temperature 66 °F -  
Max Temperature 75 °F 60 °F 79 °F (2010)
Min Temperature 57 °F 41 °F 20 °F (1973)
Cooling Degree Days 1    
Growing Degree Days 16 (Base 50)    
Moisture  
Dew Point 63 °F    
Average Humidity 87    
Maximum Humidity 94    
Minimum Humidity 78    
Precipitation  
Precipitation 0.79 in - - ()
Sea Level Pressure  
Sea Level Pressure 29.72 in    
Wind  
Wind Speed 10 mph (South)    
Max Wind Speed 18 mph    
Max Gust Speed 32 mph    
Visibility 7 miles    
Events Fog , Rain , Thunderstorm    
Averages and records for this station are not official NWS values.
T = Trace of Precipitation, MM = Missing Value Source: NWS Daily Summary

Daily Weather History Graph

Daily Weather History Graph

Search for Another Location

Airport or City:

Trip Planner

Search our weather history database for the weather conditions in past years. The results will help you decide how hot, cold, wet, or windy it might be!

Date:

Astronomy

Dec. 21, 2013 Rise Set
Actual Time 7:04 AM CST 5:10 PM CST
Civil Twilight 6:37 AM CST 5:37 PM CST
Nautical Twilight 6:07 AM CST 6:07 PM CST
Astronomical Twilight 5:37 AM CST 6:37 PM CST
Moon 9:13 PM CST (12/21) 9:43 AM CST (12/21)
Length of Visible Light 10h 59m
Length of Day
10h 06m
Waning Gibbous, 84% of the Moon is Illuminated
Dec 21
Waning Gibbous
Dec 25
Last Quarter
Jan 1
New
Jan 7
First Quarter
Jan 15
Full

Hourly Weather History & Observations

Time (CST) Temp. Dew Point Humidity Pressure Visibility Wind Dir Wind Speed Gust Speed Precip Events Conditions
12:34 AM 73.4 °F 66.2 °F 78% 29.85 in 10.0 mi South 9.2 mph - N/A   Overcast
12:53 AM 72.0 °F 66.9 °F 84% 29.83 in 10.0 mi South 10.4 mph - N/A   Overcast
1:53 AM 73.0 °F 66.9 °F 81% 29.81 in 10.0 mi South 12.7 mph 20.7 mph N/A   Overcast
2:19 AM 73.4 °F 66.2 °F 78% 29.81 in 10.0 mi South 10.4 mph 20.7 mph N/A   Overcast
2:40 AM 71.6 °F 66.2 °F 83% 29.80 in 10.0 mi South 11.5 mph 17.3 mph N/A   Overcast
2:53 AM 72.0 °F 66.9 °F 84% 29.79 in 10.0 mi SSE 10.4 mph - N/A   Overcast
3:00 AM 71.6 °F 66.2 °F 83% 29.79 in 10.0 mi SSE 10.4 mph - N/A   Overcast
3:53 AM 70.0 °F 66.9 °F 90% 29.77 in 7.0 mi SSE 9.2 mph 17.3 mph 0.01 in   Overcast
4:36 AM 71.6 °F 66.2 °F 83% 29.75 in 4.0 mi SSE 8.1 mph - 0.00 in Rain Light Rain
4:53 AM 71.1 °F 68.0 °F 90% 29.73 in 4.0 mi SSE 10.4 mph - 0.00 in   Overcast
5:44 AM 71.6 °F 68.0 °F 88% 29.73 in 10.0 mi South 9.2 mph 17.3 mph N/A   Overcast
5:53 AM 72.0 °F 68.0 °F 87% 29.72 in 10.0 mi South 8.1 mph 21.9 mph N/A   Overcast
6:40 AM 73.4 °F 66.2 °F 78% 29.73 in 10.0 mi South 13.8 mph 20.7 mph N/A   Overcast
6:53 AM 73.0 °F 66.9 °F 81% 29.73 in 10.0 mi South 15.0 mph 23.0 mph N/A   Overcast
7:53 AM 73.0 °F 66.9 °F 81% 29.73 in 10.0 mi South 11.5 mph 19.6 mph 0.01 in   Overcast
8:53 AM 73.0 °F 66.9 °F 81% 29.73 in 9.0 mi South 12.7 mph 24.2 mph N/A   Overcast
9:53 AM 73.0 °F 68.0 °F 84% 29.72 in 9.0 mi South 12.7 mph 32.2 mph 0.00 in   Overcast
10:53 AM 73.9 °F 69.1 °F 85% 29.70 in 10.0 mi South 16.1 mph 26.5 mph N/A   Overcast
11:53 AM 73.9 °F 69.1 °F 85% 29.67 in 6.0 mi South 15.0 mph 25.3 mph 0.00 in Rain Light Rain
12:01 PM 73.4 °F 69.8 °F 88% 29.67 in 7.0 mi South 17.3 mph 26.5 mph 0.00 in Rain Light Rain
12:11 PM 73.4 °F 69.8 °F 88% 29.67 in 5.0 mi South 18.4 mph 26.5 mph 0.01 in Rain Light Rain
12:49 PM 75.2 °F 69.8 °F 83% 29.64 in 9.0 mi South 17.3 mph 28.8 mph 0.01 in   Overcast
12:53 PM 75.0 °F 69.1 °F 82% 29.64 in 9.0 mi South 13.8 mph 28.8 mph 0.01 in   Overcast
1:53 PM 75.0 °F 69.1 °F 82% 29.59 in 5.0 mi South 17.3 mph 26.5 mph 0.01 in Rain Light Rain
2:53 PM 75.9 °F 69.1 °F 79% 29.59 in 10.0 mi South 16.1 mph 26.5 mph 0.00 in Rain Light Rain
3:39 PM 75.2 °F 69.8 °F 83% 29.58 in 7.0 mi South 17.3 mph 28.8 mph 0.00 in Rain , Thunderstorm Light Rain
3:53 PM 73.9 °F 69.1 °F 85% 29.58 in 7.0 mi South 16.1 mph 26.5 mph 0.00 in Rain , Thunderstorm Light Rain
4:02 PM 75.2 °F 69.8 °F 83% 29.58 in 9.0 mi South 18.4 mph 29.9 mph 0.00 in Rain Light Rain
4:26 PM 75.2 °F 69.8 °F 83% 29.60 in 7.0 mi South 13.8 mph 25.3 mph 0.00 in Rain , Thunderstorm Light Rain
4:53 PM 73.9 °F 70.0 °F 87% 29.60 in 3.0 mi SSW 11.5 mph 27.6 mph 0.04 in Rain , Thunderstorm Light Thunderstorms and Rain
5:06 PM 71.6 °F 66.2 °F 83% 29.65 in 1.8 mi NW 15.0 mph 32.2 mph 0.12 in Rain , Thunderstorm Heavy Thunderstorms and Rain
5:10 PM 66.2 °F 62.6 °F 88% 29.63 in 1.5 mi NW 15.0 mph 32.2 mph 0.18 in Rain Heavy Rain
5:26 PM 62.6 °F 59.0 °F 88% 29.68 in 2.0 mi NNW 9.2 mph 17.3 mph 0.35 in Rain Heavy Rain
5:36 PM 60.8 °F 57.2 °F 88% 29.70 in 3.0 mi NW 8.1 mph - 0.39 in Rain Heavy Rain
5:44 PM 60.8 °F 57.2 °F 88% 29.67 in 2.5 mi Variable 5.8 mph 18.4 mph 0.43 in Rain , Thunderstorm Heavy Thunderstorms and Rain
5:53 PM 60.1 °F 57.0 °F 90% 29.70 in 4.0 mi Variable 4.6 mph - 0.48 in Rain , Thunderstorm Thunderstorms and Rain
6:27 PM 60.8 °F 57.2 °F 88% 29.73 in 5.0 mi WNW 4.6 mph - 0.02 in Rain Light Rain
6:35 PM 60.8 °F 57.2 °F 88% 29.72 in 3.0 mi Variable 4.6 mph - 0.06 in Rain , Thunderstorm Heavy Rain
6:53 PM 59.0 °F 57.0 °F 93% 29.73 in 9.0 mi ESE 5.8 mph - 0.09 in Rain , Thunderstorm Light Rain
7:08 PM 59.0 °F 57.2 °F 94% 29.71 in 2.0 mi NNW 4.6 mph - 0.09 in Rain , Thunderstorm Heavy Thunderstorms and Rain
7:18 PM 59.0 °F 57.2 °F 94% 29.72 in 7.0 mi ESE 5.8 mph - 0.10 in Rain , Thunderstorm Light Thunderstorms and Rain
7:44 PM 59.0 °F 57.2 °F 94% 29.71 in 10.0 mi ESE 4.6 mph - 0.13 in Thunderstorm Overcast
7:53 PM 59.0 °F 57.0 °F 93% 29.72 in 10.0 mi SE 3.5 mph - 0.13 in   Overcast
8:37 PM 60.8 °F 57.2 °F 88% 29.73 in 10.0 mi Calm Calm - 0.00 in Rain Light Rain
8:53 PM 60.1 °F 57.0 °F 90% 29.73 in 10.0 mi Calm Calm - 0.00 in   Overcast
9:39 PM 60.8 °F 57.2 °F 88% 29.78 in 10.0 mi Calm Calm - 0.01 in Thunderstorm Mostly Cloudy
9:53 PM 59.0 °F 57.0 °F 93% 29.78 in 10.0 mi Calm Calm - 0.01 in   Mostly Cloudy
10:36 PM 57.2 °F 55.4 °F 94% 29.80 in 1.5 mi Calm Calm - N/A   Scattered Clouds
10:44 PM 57.2 °F 55.4 °F 94% 29.80 in 0.5 mi Calm Calm - N/A Fog Fog
10:50 PM 57.2 °F 55.4 °F 94% 29.80 in 0.2 mi Calm Calm - N/A Fog Fog
10:53 PM 57.0 °F 55.0 °F 93% 29.80 in 0.5 mi Calm Calm - N/A Fog Fog
11:09 PM 57.2 °F 55.4 °F 94% 29.81 in 0.5 mi Calm Calm - N/A Fog Fog
11:53 PM 59.0 °F 57.0 °F 93% 29.84 in 0.2 mi WSW 5.8 mph - N/A Fog Fog